Station Historical Data
Daily Summary for May 20, 2017 Units:  Metric    English   Both
« Previous Day
Next Day »
Daily Weekly Monthly Yearly Custom
  High: Low: Average:
Temperature: 19.7 °C 9.5 °C 14 °C
Dew Point: 8.2 °C 1.3 °C 5.1 °C
Humidity: 78% 42% 56%
Wind Speed: 24.1km/h 0km/h 10.5km/h
Wind Gust: 35.4km/h - -
Wind- - ENE
Pressure: 1026.6 hPa 1021.6 hPa -
Precipitation: 0 mm    
Historical Graphs
 
 
Tabular Data for May 20, 2017
Time Temperature Dew Point Pressure Wind Wind Speed Wind Gust Humidity Rainfall Rate (Hourly)
00:00 12.4 °C 7.3 °C 1022.6 hPa NE 3.2 km/h 8 km/h 71% 0 mm
00:05 12.3 °C 7.2 °C 1022.6 hPa NE 1.6 km/h 6.4 km/h 71% 0 mm
00:10 12.3 °C 7.2 °C 1022.2 hPa NE 1.6 km/h 6.4 km/h 71% 0 mm
00:15 12.3 °C 7 °C 1022.2 hPa NE 3.2 km/h 8 km/h 70% 0 mm
00:20 12.3 °C 6.9 °C 1022.2 hPa ENE 3.2 km/h 11.3 km/h 70% 0 mm
00:25 12.3 °C 6.9 °C 1022.2 hPa ENE 4.8 km/h 11.3 km/h 70% 0 mm
00:30 12.3 °C 7.2 °C 1022.2 hPa NE 4.8 km/h 8 km/h 71% 0 mm
00:35 12.1 °C 7 °C 1021.9 hPa NE 3.2 km/h 4.8 km/h 71% 0 mm
00:40 12.2 °C 7.1 °C 1021.9 hPa NE 3.2 km/h 11.3 km/h 71% 0 mm
00:45 12.2 °C 7.1 °C 1021.9 hPa Calm   6.4 km/h 71% 0 mm
00:50 12.1 °C 7.2 °C 1021.9 hPa NE 3.2 km/h 9.7 km/h 72% 0 mm
00:55 12 °C 7.1 °C 1021.9 hPa Calm   8 km/h 72% 0 mm
01:00 11.8 °C 7.1 °C 1022.2 hPa ENE 3.2 km/h 8 km/h 73% 0 mm
01:05 11.7 °C 7.1 °C 1021.9 hPa ENE 1.6 km/h 6.4 km/h 73% 0 mm
01:10 11.7 °C 7.2 °C 1022.2 hPa NE 3.2 km/h 11.3 km/h 74% 0 mm
01:15 11.7 °C 7.2 °C 1021.9 hPa ENE 3.2 km/h 11.3 km/h 74% 0 mm
01:20 11.8 °C 7.3 °C 1021.9 hPa ENE 6.4 km/h 16.1 km/h 74% 0 mm
01:25 11.8 °C 7.5 °C 1022.2 hPa NE 6.4 km/h 16.1 km/h 75% 0 mm
01:30 11.7 °C 7.4 °C 1022.2 hPa NE 6.4 km/h 8 km/h 75% 0 mm
01:35 11.7 °C 7.4 °C 1021.9 hPa NE 4.8 km/h 11.3 km/h 75% 0 mm
01:40 11.7 °C 7.4 °C 1021.9 hPa NE 6.4 km/h 14.5 km/h 75% 0 mm
01:45 11.7 °C 7.6 °C 1021.9 hPa ENE 4.8 km/h 12.9 km/h 76% 0 mm
01:50 11.6 °C 7.5 °C 1022.2 hPa NE 4.8 km/h 17.7 km/h 76% 0 mm
01:55 11.6 °C 7.5 °C 1022.2 hPa NNW 6.4 km/h 12.9 km/h 76% 0 mm
02:00 11.5 °C 7.4 °C 1021.9 hPa NE 3.2 km/h 12.9 km/h 76% 0 mm
02:05 11.4 °C 7.3 °C 1021.9 hPa NE 6.4 km/h 16.1 km/h 76% 0 mm
02:10 11.4 °C 7.3 °C 1022.2 hPa NE 8 km/h 17.7 km/h 76% 0 mm
02:15 11.3 °C 7.4 °C 1022.2 hPa NE 3.2 km/h 19.3 km/h 77% 0 mm
02:20 11.3 °C 7.6 °C 1021.9 hPa ENE 4.8 km/h 16.1 km/h 78% 0 mm
02:25 11.3 °C 7.6 °C 1021.9 hPa NE 9.7 km/h 17.7 km/h 78% 0 mm
02:30 11.3 °C 7.6 °C 1022.2 hPa NE 9.7 km/h 17.7 km/h 78% 0 mm
02:35 11.3 °C 7.6 °C 1021.9 hPa NE 9.7 km/h 17.7 km/h 78% 0 mm
02:40 11.3 °C 7.4 °C 1021.6 hPa ENE 8 km/h 16.1 km/h 77% 0 mm
02:45 11.2 °C 7.3 °C 1021.6 hPa ENE 9.7 km/h 20.9 km/h 77% 0 mm
02:55 11.2 °C 7.1 °C 1022.2 hPa NE 14.5 km/h 14.5 km/h 76% 0 mm
03:00 11.2 °C 7.1 °C 1022.6 hPa NE 6.4 km/h 16.1 km/h 76% 0 mm
03:05 11.1 °C 7.1 °C 1022.6 hPa NE 8 km/h 14.5 km/h 76% 0 mm
03:10 11.1 °C 7 °C 1022.6 hPa NE 4.8 km/h 19.3 km/h 76% 0 mm
03:15 11.1 °C 7.2 °C 1022.6 hPa NE 3.2 km/h 14.5 km/h 77% 0 mm
03:20 11 °C 7.1 °C 1022.6 hPa NNE 8 km/h 20.9 km/h 77% 0 mm
03:25 10.9 °C 7.1 °C 1022.6 hPa NE 6.4 km/h 16.1 km/h 77% 0 mm
03:30 10.9 °C 7 °C 1022.6 hPa NE 9.7 km/h 22.5 km/h 77% 0 mm
03:35 10.8 °C 6.9 °C 1022.9 hPa NE 9.7 km/h 22.5 km/h 77% 0 mm
03:40 10.8 °C 6.8 °C 1022.9 hPa NE 9.7 km/h 20.9 km/h 76% 0 mm
03:45 10.7 °C 6.4 °C 1023.2 hPa NE 9.7 km/h 22.5 km/h 75% 0 mm
03:50 10.7 °C 5.9 °C 1023.2 hPa NE 11.3 km/h 22.5 km/h 72% 0 mm
03:55 10.7 °C 5.6 °C 1023.2 hPa NE 9.7 km/h 22.5 km/h 71% 0 mm
04:00 10.7 °C 5.1 °C 1023.6 hPa NE 14.5 km/h 22.5 km/h 68% 0 mm
04:05 10.7 °C 4.2 °C 1023.2 hPa NE 16.1 km/h 25.7 km/h 64% 0 mm
04:10 10.8 °C 3.6 °C 1023.6 hPa NE 12.9 km/h 24.1 km/h 61% 0 mm
04:15 10.7 °C 3.3 °C 1023.2 hPa NE 8 km/h 22.5 km/h 60% 0 mm
04:20 10.7 °C 3 °C 1023.6 hPa NE 14.5 km/h 22.5 km/h 59% 0 mm
04:25 10.7 °C 2.8 °C 1023.6 hPa NE 12.9 km/h 24.1 km/h 58% 0 mm
04:30 10.7 °C 2.7 °C 1023.6 hPa NE 12.9 km/h 25.7 km/h 58% 0 mm
04:35 10.7 °C 2.5 °C 1023.6 hPa NE 12.9 km/h 25.7 km/h 57% 0 mm
04:40 10.6 °C 2.4 °C 1023.6 hPa NE 14.5 km/h 27.4 km/h 57% 0 mm
04:45 10.6 °C 2.4 °C 1023.6 hPa NE 14.5 km/h 27.4 km/h 57% 0 mm
04:50 10.6 °C 2.4 °C 1023.9 hPa NE 9.7 km/h 25.7 km/h 57% 0 mm
05:00 10.4 °C 2.1 °C 1024.3 hPa NE 12.9 km/h 25.7 km/h 56% 0 mm
05:05 10.4 °C 2 °C 1023.9 hPa NE 14.5 km/h 25.7 km/h 56% 0 mm
05:10 10.3 °C 1.9 °C 1024.3 hPa NE 14.5 km/h 22.5 km/h 56% 0 mm
05:15 10.2 °C 1.8 °C 1024.3 hPa ENE 16.1 km/h 20.9 km/h 56% 0 mm
05:20 10.2 °C 1.8 °C 1024.6 hPa NE 11.3 km/h 27.4 km/h 56% 0 mm
05:25 10.1 °C 1.7 °C 1024.3 hPa NE 12.9 km/h 27.4 km/h 56% 0 mm
05:30 10 °C 1.6 °C 1024.6 hPa NE 14.5 km/h 25.7 km/h 56% 0 mm
05:35 9.9 °C 1.6 °C 1024.6 hPa NE 14.5 km/h 22.5 km/h 56% 0 mm
05:40 9.9 °C 1.6 °C 1024.6 hPa NNE 12.9 km/h 19.3 km/h 56% 0 mm
05:45 9.9 °C 1.5 °C 1024.6 hPa NE 19.3 km/h 24.1 km/h 56% 0 mm
05:50 9.8 °C 1.4 °C 1024.6 hPa ENE 20.9 km/h 20.9 km/h 56% 0 mm
05:55 9.8 °C 1.4 °C 1024.6 hPa NE 12.9 km/h 25.7 km/h 56% 0 mm
06:00 9.7 °C 1.3 °C 1024.6 hPa NE 12.9 km/h 25.7 km/h 56% 0 mm
06:05 9.7 °C 1.3 °C 1024.6 hPa NE 12.9 km/h 24.1 km/h 56% 0 mm
06:10 9.6 °C 1.5 °C 1024.6 hPa NE 11.3 km/h 22.5 km/h 57% 0 mm
06:15 9.6 °C 1.7 °C 1024.9 hPa NE 11.3 km/h 22.5 km/h 58% 0 mm
06:20 9.6 °C 1.7 °C 1024.9 hPa NE 11.3 km/h 29 km/h 58% 0 mm
06:25 9.6 °C 1.7 °C 1024.9 hPa ENE 6.4 km/h 25.7 km/h 58% 0 mm
06:30 9.6 °C 1.7 °C 1025.3 hPa NE 20.9 km/h 25.7 km/h 58% 0 mm
06:35 9.6 °C 1.7 °C 1025.3 hPa East 20.9 km/h 24.1 km/h 58% 0 mm
06:40 9.6 °C 1.7 °C 1025.3 hPa ESE 11.3 km/h 29 km/h 58% 0 mm
06:45 9.6 °C 1.7 °C 1025.3 hPa NNE 14.5 km/h 35.4 km/h 58% 0 mm
06:50 9.6 °C 1.9 °C 1025.3 hPa East 17.7 km/h 27.4 km/h 59% 0 mm
06:55 9.6 °C 1.9 °C 1025.3 hPa NE 12.9 km/h 27.4 km/h 59% 0 mm
07:00 9.5 °C 1.9 °C 1025.3 hPa NE 12.9 km/h 25.7 km/h 59% 0 mm
07:05 9.5 °C 1.9 °C 1025.6 hPa NE 12.9 km/h 27.4 km/h 59% 0 mm
07:10 9.5 °C 2.1 °C 1025.6 hPa NE 14.5 km/h 29 km/h 60% 0 mm
07:15 9.5 °C 2.1 °C 1026 hPa ENE 8 km/h 20.9 km/h 60% 0 mm
07:20 9.6 °C 2.2 °C 1026 hPa ENE 17.7 km/h 25.7 km/h 60% 0 mm
07:25 9.6 °C 2.2 °C 1026 hPa NE 14.5 km/h 29 km/h 60% 0 mm
07:30 9.6 °C 2.2 °C 1025.6 hPa ENE 16.1 km/h 32.2 km/h 60% 0 mm
07:35 9.7 °C 2.5 °C 1026 hPa ENE 11.3 km/h 32.2 km/h 61% 0 mm
07:40 9.7 °C 2.3 °C 1026 hPa ENE 22.5 km/h 24.1 km/h 60% 0 mm
07:45 9.7 °C 2.6 °C 1026.3 hPa NE 6.4 km/h 25.7 km/h 61% 0 mm
07:50 9.8 °C 2.6 °C 1026.3 hPa ESE 12.9 km/h 24.1 km/h 61% 0 mm
07:55 9.8 °C 2.4 °C 1026.3 hPa NE 12.9 km/h 27.4 km/h 60% 0 mm
08:00 9.9 °C 2.5 °C 1026.3 hPa ENE 14.5 km/h 29 km/h 60% 0 mm
08:05 10.2 °C 3 °C 1026.3 hPa ENE 14.5 km/h 29 km/h 61% 0 mm
08:10 10.5 °C 3.1 °C 1026.3 hPa ENE 14.5 km/h 27.4 km/h 60% 0 mm
08:15 10.7 °C 3.2 °C 1026.3 hPa ENE 6.4 km/h 25.7 km/h 60% 0 mm
08:20 10.8 °C 2.9 °C 1026.3 hPa SE 20.9 km/h 27.4 km/h 58% 0 mm
08:25 10.8 °C 2.8 °C 1026.6 hPa NE 14.5 km/h 33.8 km/h 58% 0 mm
08:30 11.1 °C 3.4 °C 1026.6 hPa ENE 12.9 km/h 33.8 km/h 59% 0 mm
08:35 10.8 °C 2.9 °C 1026.6 hPa ENE 12.9 km/h 27.4 km/h 58% 0 mm
08:40 11.1 °C 3.2 °C 1026.6 hPa NE 14.5 km/h 27.4 km/h 58% 0 mm
08:45 11.7 °C 3.4 °C 1026.6 hPa ENE 8 km/h 22.5 km/h 57% 0 mm
08:50 11.8 °C 3.6 °C 1026.6 hPa ENE 14.5 km/h 17.7 km/h 57% 0 mm
08:55 11.7 °C 3.5 °C 1026.6 hPa NE 11.3 km/h 20.9 km/h 57% 0 mm
09:00 11.9 °C 3.4 °C 1026.3 hPa NE 9.7 km/h 24.1 km/h 56% 0 mm
09:05 12 °C 3.7 °C 1026.3 hPa NE 20.9 km/h 25.7 km/h 57% 0 mm
09:10 12.4 °C 3.6 °C 1026.3 hPa ENE 6.4 km/h 22.5 km/h 55% 0 mm
09:15 12.2 °C 3.1 °C 1026.3 hPa NE 4.8 km/h 22.5 km/h 54% 0 mm
09:20 12.4 °C 3.7 °C 1026.3 hPa ENE 6.4 km/h 25.7 km/h 55% 0 mm
09:25 12.3 °C 3.3 °C 1026.6 hPa NE 12.9 km/h 33.8 km/h 54% 0 mm
09:30 12.9 °C 4.4 °C 1026.6 hPa NE 11.3 km/h 33.8 km/h 56% 0 mm
09:35 13.3 °C 3.7 °C 1026.6 hPa ENE 8 km/h 17.7 km/h 52% 0 mm
09:40 13 °C 3.1 °C 1026.6 hPa ENE 9.7 km/h 22.5 km/h 51% 0 mm
09:45 13.3 °C 4.2 °C 1026.3 hPa ENE 9.7 km/h 22.5 km/h 54% 0 mm
09:50 13.6 °C 4.2 °C 1026.3 hPa East 8 km/h 16.1 km/h 53% 0 mm
09:55 13.4 °C 4.1 °C 1026.3 hPa ENE 8 km/h 25.7 km/h 53% 0 mm
10:00 13.6 °C 3.9 °C 1026.3 hPa East 14.5 km/h 22.5 km/h 52% 0 mm
10:05 13.7 °C 4.3 °C 1026.3 hPa ENE 16.1 km/h 20.9 km/h 53% 0 mm
10:10 13.8 °C 3.8 °C 1026.3 hPa NNE 11.3 km/h 17.7 km/h 51% 0 mm
10:15 14.1 °C 4.1 °C 1026.3 hPa NE 8 km/h 19.3 km/h 51% 0 mm
10:20 13.9 °C 3.6 °C 1026.3 hPa East 4.8 km/h 20.9 km/h 50% 0 mm
10:25 14.3 °C 4.3 °C 1026.3 hPa NE 16.1 km/h 17.7 km/h 51% 0 mm
10:30 14.5 °C 4.5 °C 1026 hPa ENE 9.7 km/h 17.7 km/h 51% 0 mm
10:35 14.7 °C 4.6 °C 1026 hPa ENE 9.7 km/h 24.1 km/h 51% 0 mm
10:40 14.7 °C 4.4 °C 1026 hPa ENE 9.7 km/h 24.1 km/h 50% 0 mm
10:45 14.8 °C 4.2 °C 1026 hPa ENE 11.3 km/h 24.1 km/h 49% 0 mm
10:50 14.7 °C 4.1 °C 1026.3 hPa ENE 12.9 km/h 25.7 km/h 49% 0 mm
10:55 15 °C 4.7 °C 1026 hPa ENE 11.3 km/h 25.7 km/h 50% 0 mm
11:00 14.6 °C 4.6 °C 1026.3 hPa NE 12.9 km/h 27.4 km/h 51% 0 mm
11:05 15.3 °C 4.7 °C 1026.3 hPa SE 12.9 km/h 17.7 km/h 49% 0 mm
11:10 15.1 °C 4.4 °C 1026.3 hPa NE 19.3 km/h 24.1 km/h 49% 0 mm
11:15 15 °C 4.4 °C 1026.3 hPa ENE 14.5 km/h 24.1 km/h 49% 0 mm
11:20 15.7 °C 5.3 °C 1026.3 hPa NE 22.5 km/h 33.8 km/h 50% 0 mm
11:25 15.7 °C 5.3 °C 1026 hPa NE 8 km/h 25.7 km/h 50% 0 mm
11:30 15.7 °C 4.7 °C 1026 hPa NE 6.4 km/h 25.7 km/h 48% 0 mm
11:35 15.9 °C 5.2 °C 1026 hPa ENE 11.3 km/h 25.7 km/h 49% 0 mm
11:40 16.1 °C 5.9 °C 1026 hPa ENE 12.9 km/h 24.1 km/h 51% 0 mm
11:45 16.6 °C 5.2 °C 1026 hPa ENE 11.3 km/h 24.1 km/h 47% 0 mm
11:50 16.1 °C 4.8 °C 1026 hPa ENE 11.3 km/h 25.7 km/h 47% 0 mm
11:55 15.9 °C 5.2 °C 1026.3 hPa ENE 12.9 km/h 25.7 km/h 49% 0 mm
12:00 16.4 °C 5.9 °C 1026.3 hPa NNE 6.4 km/h 22.5 km/h 50% 0 mm
12:05 16.8 °C 5.7 °C 1026 hPa East 12.9 km/h 20.9 km/h 48% 0 mm
12:10 16.3 °C 4.7 °C 1026 hPa ESE 4.8 km/h 27.4 km/h 46% 0 mm
12:15 16.6 °C 5.2 °C 1026.3 hPa SSE 8 km/h 20.9 km/h 47% 0 mm
12:20 16.8 °C 5.1 °C 1026 hPa East 14.5 km/h 27.4 km/h 46% 0 mm
12:25 16.8 °C 4.8 °C 1026 hPa NE 4.8 km/h 17.7 km/h 45% 0 mm
12:30 17 °C 6.2 °C 1026 hPa ENE 9.7 km/h 17.7 km/h 49% 0 mm
12:35 17.3 °C 4.9 °C 1026 hPa ENE 8 km/h 17.7 km/h 44% 0 mm
12:40 17.2 °C 5.5 °C 1026 hPa ENE 9.7 km/h 17.7 km/h 46% 0 mm
12:45 17.5 °C 5.7 °C 1026 hPa ENE 8 km/h 17.7 km/h 46% 0 mm
12:50 17.3 °C 5.2 °C 1026 hPa ENE 9.7 km/h 19.3 km/h 45% 0 mm
12:55 17.5 °C 5.7 °C 1026 hPa East 8 km/h 24.1 km/h 46% 0 mm
13:00 17.3 °C 5.6 °C 1026 hPa ENE 9.7 km/h 24.1 km/h 46% 0 mm
13:05 17.7 °C 5.3 °C 1026 hPa ENE 11.3 km/h 20.9 km/h 44% 0 mm
13:10 17.5 °C 5.4 °C 1026 hPa NE 8 km/h 20.9 km/h 45% 0 mm
13:15 17.9 °C 5.2 °C 1025.6 hPa East 3.2 km/h 16.1 km/h 43% 0 mm
13:20 18.2 °C 6.1 °C 1025.6 hPa NE 9.7 km/h 19.3 km/h 45% 0 mm
13:25 18.1 °C 4.9 °C 1025.6 hPa NE 3.2 km/h 22.5 km/h 42% 0 mm
13:30 18.1 °C 5.6 °C 1025.6 hPa ENE 11.3 km/h 22.5 km/h 44% 0 mm
13:35 18.1 °C 6.3 °C 1025.6 hPa ENE 9.7 km/h 22.5 km/h 46% 0 mm
13:40 18.5 °C 6.3 °C 1025.3 hPa ENE 8 km/h 22.5 km/h 45% 0 mm
13:45 18.7 °C 6.6 °C 1025.6 hPa ENE 8 km/h 20.9 km/h 45% 0 mm
13:50 18.7 °C 6.5 °C 1025.3 hPa NE 16.1 km/h 20.9 km/h 45% 0 mm
13:55 18.8 °C 5.6 °C 1025.3 hPa ENE 4.8 km/h 19.3 km/h 42% 0 mm
14:00 18.7 °C 6.2 °C 1025.3 hPa ENE 1.6 km/h 14.5 km/h 44% 0 mm
14:05 19.1 °C 5.9 °C 1025.3 hPa ENE 8 km/h 25.7 km/h 42% 0 mm
14:10 18.8 °C 5.6 °C 1024.9 hPa ENE 3.2 km/h 20.9 km/h 42% 0 mm
14:15 18.7 °C 5.6 °C 1024.9 hPa ENE 11.3 km/h 29 km/h 42% 0 mm
14:20 18.9 °C 6.4 °C 1024.9 hPa ENE 8 km/h 19.3 km/h 44% 0 mm
14:25 19.3 °C 6.4 °C 1024.9 hPa ENE 6.4 km/h 19.3 km/h 43% 0 mm
14:30 19.7 °C 6.4 °C 1024.9 hPa ENE 8 km/h 19.3 km/h 42% 0 mm
14:35 19.3 °C 7.1 °C 1024.9 hPa NE 9.7 km/h 24.1 km/h 45% 0 mm
14:40 18.9 °C 7.1 °C 1024.9 hPa NE 16.1 km/h 24.1 km/h 46% 0 mm
14:45 18.9 °C 7.6 °C 1024.9 hPa NE 11.3 km/h 22.5 km/h 48% 0 mm
14:50 18.8 °C 7.6 °C 1024.9 hPa NE 17.7 km/h 27.4 km/h 48% 0 mm
14:55 18.8 °C 7.6 °C 1024.9 hPa NE 11.3 km/h 27.4 km/h 48% 0 mm
15:00 18.7 °C 7.4 °C 1024.9 hPa NE 11.3 km/h 30.6 km/h 48% 0 mm
15:05 18.6 °C 7.6 °C 1025.3 hPa NE 14.5 km/h 30.6 km/h 49% 0 mm
15:10 18.4 °C 7.2 °C 1024.9 hPa NE 16.1 km/h 29 km/h 48% 0 mm
15:15 18.8 °C 7.6 °C 1024.9 hPa NE 14.5 km/h 29 km/h 48% 0 mm
15:20 18.9 °C 7.4 °C 1024.9 hPa NE 14.5 km/h 27.4 km/h 47% 0 mm
15:25 18.6 °C 7.1 °C 1024.9 hPa NNE 8 km/h 24.1 km/h 47% 0 mm
15:30 18.6 °C 8.2 °C 1024.9 hPa NNE 6.4 km/h 25.7 km/h 51% 0 mm
15:35 18.5 °C 6.9 °C 1024.9 hPa NE 12.9 km/h 27.4 km/h 47% 0 mm
15:40 18.5 °C 7.6 °C 1024.9 hPa NE 14.5 km/h 27.4 km/h 49% 0 mm
15:45 18.2 °C 7.3 °C 1024.9 hPa NNE 4.8 km/h 29 km/h 49% 0 mm
15:50 18.3 °C 7.1 °C 1024.9 hPa NE 11.3 km/h 27.4 km/h 48% 0 mm
15:55 18.3 °C 7.9 °C 1024.6 hPa NE 14.5 km/h 32.2 km/h 51% 0 mm
16:00 18.4 °C 6.9 °C 1024.6 hPa NE 14.5 km/h 32.2 km/h 47% 0 mm
16:05 18.3 °C 7.7 °C 1024.6 hPa NE 12.9 km/h 24.1 km/h 50% 0 mm
16:10 18.6 °C 7.1 °C 1024.3 hPa NE 11.3 km/h 22.5 km/h 47% 0 mm
16:15 18.6 °C 7.1 °C 1024.3 hPa NE 11.3 km/h 30.6 km/h 47% 0 mm
16:20 18.3 °C 6.8 °C 1024.6 hPa NE 12.9 km/h 27.4 km/h 47% 0 mm
16:25 18 °C 6.8 °C 1024.6 hPa ENE 19.3 km/h 25.7 km/h 48% 0 mm
16:30 17.7 °C 6.8 °C 1024.3 hPa East 20.9 km/h 25.7 km/h 49% 0 mm
16:35 17.6 °C 6.2 °C 1024.6 hPa ENE 8 km/h 27.4 km/h 47% 0 mm
16:40 17.3 °C 6.2 °C 1024.6 hPa NNE 8 km/h 25.7 km/h 48% 0 mm
16:45 17.7 °C 7.1 °C 1024.3 hPa ENE 12.9 km/h 22.5 km/h 50% 0 mm
16:50 17.8 °C 6.3 °C 1024.3 hPa NE 8 km/h 25.7 km/h 47% 0 mm
16:55 18.1 °C 6.9 °C 1024.3 hPa NE 9.7 km/h 22.5 km/h 48% 0 mm
17:00 18.4 °C 7.5 °C 1024.3 hPa NE 11.3 km/h 22.5 km/h 49% 0 mm
17:05 18 °C 6.2 °C 1023.9 hPa NE 12.9 km/h 29 km/h 46% 0 mm
17:10 17.7 °C 6.2 °C 1024.3 hPa NE 14.5 km/h 29 km/h 47% 0 mm
17:15 17.6 °C 6.2 °C 1023.9 hPa NE 12.9 km/h 27.4 km/h 47% 0 mm
17:20 17.4 °C 6.6 °C 1023.9 hPa NE 14.5 km/h 25.7 km/h 49% 0 mm
17:25 17.6 °C 6.4 °C 1023.9 hPa NE 6.4 km/h 29 km/h 48% 0 mm
17:30 17.7 °C 6.6 °C 1023.9 hPa ENE 12.9 km/h 29 km/h 48% 0 mm
17:35 17.7 °C 6.5 °C 1023.9 hPa ENE 12.9 km/h 33.8 km/h 48% 0 mm
17:40 17.3 °C 5.9 °C 1023.9 hPa NE 20.9 km/h 32.2 km/h 47% 0 mm
17:45 17.3 °C 6.8 °C 1023.9 hPa NE 11.3 km/h 32.2 km/h 50% 0 mm
17:50 17.1 °C 6.3 °C 1023.9 hPa NE 24.1 km/h 27.4 km/h 49% 0 mm
17:55 17 °C 5.9 °C 1023.9 hPa NE 11.3 km/h 27.4 km/h 48% 0 mm
18:00 16.9 °C 5.8 °C 1023.6 hPa NE 16.1 km/h 29 km/h 48% 0 mm
18:05 16.9 °C 5.8 °C 1023.6 hPa NE 17.7 km/h 29 km/h 48% 0 mm
18:10 16.9 °C 6.2 °C 1023.6 hPa ENE 17.7 km/h 29 km/h 49% 0 mm
18:15 16.9 °C 6.2 °C 1023.9 hPa ENE 17.7 km/h 22.5 km/h 49% 0 mm
18:20 16.7 °C 5.9 °C 1023.6 hPa NNE 12.9 km/h 25.7 km/h 49% 0 mm
18:25 16.7 °C 5.9 °C 1023.6 hPa NE 14.5 km/h 25.7 km/h 49% 0 mm
18:30 16.8 °C 6 °C 1023.6 hPa NE 19.3 km/h 29 km/h 49% 0 mm
18:35 16.7 °C 5.9 °C 1023.6 hPa NE 12.9 km/h 29 km/h 49% 0 mm
18:40 16.6 °C 5.8 °C 1023.6 hPa NE 14.5 km/h 29 km/h 49% 0 mm
18:45 16.4 °C 6.3 °C 1023.6 hPa East 14.5 km/h 29 km/h 51% 0 mm
18:50 16.6 °C 6.1 °C 1023.6 hPa ENE 17.7 km/h 30.6 km/h 50% 0 mm
18:55 16.3 °C 5.8 °C 1023.6 hPa NE 12.9 km/h 27.4 km/h 50% 0 mm
19:00 16.2 °C 6.3 °C 1023.6 hPa ENE 12.9 km/h 25.7 km/h 52% 0 mm
19:05 16.1 °C 5.9 °C 1023.6 hPa NE 19.3 km/h 29 km/h 51% 0 mm
19:10 16.1 °C 5.9 °C 1023.6 hPa NE 11.3 km/h 30.6 km/h 51% 0 mm
19:15 15.8 °C 5.7 °C 1023.6 hPa ENE 8 km/h 20.9 km/h 51% 0 mm
19:20 15.6 °C 5.8 °C 1023.6 hPa ENE 6.4 km/h 25.7 km/h 52% 0 mm
19:25 15.4 °C 5.9 °C 1023.6 hPa ENE 12.9 km/h 25.7 km/h 53% 0 mm
19:30 15.3 °C 5.8 °C 1023.6 hPa ENE 9.7 km/h 20.9 km/h 53% 0 mm
19:35 15.3 °C 5.7 °C 1023.6 hPa ENE 9.7 km/h 20.9 km/h 53% 0 mm
19:40 15.2 °C 5.7 °C 1023.6 hPa ENE 9.7 km/h 20.9 km/h 53% 0 mm
19:45 15.2 °C 5.7 °C 1023.6 hPa ENE 8 km/h 17.7 km/h 53% 0 mm
19:50 15.1 °C 5.6 °C 1023.6 hPa ENE 8 km/h 20.9 km/h 53% 0 mm
19:55 15.1 °C 5.6 °C 1023.6 hPa NE 6.4 km/h 17.7 km/h 53% 0 mm
20:00 15.1 °C 5.6 °C 1023.6 hPa ENE 8 km/h 17.7 km/h 53% 0 mm
20:05 14.9 °C 5.4 °C 1023.2 hPa ENE 4.8 km/h 22.5 km/h 53% 0 mm
20:10 14.8 °C 5.6 °C 1023.6 hPa NE 8 km/h 20.9 km/h 54% 0 mm
20:15 14.7 °C 5.5 °C 1023.6 hPa ENE 4.8 km/h 24.1 km/h 54% 0 mm
20:20 14.7 °C 5.2 °C 1023.9 hPa ENE 11.3 km/h 20.9 km/h 53% 0 mm
20:25 14.5 °C 5 °C 1023.9 hPa East 9.7 km/h 22.5 km/h 53% 0 mm
20:30 14.4 °C 4.9 °C 1023.6 hPa ENE 9.7 km/h 22.5 km/h 53% 0 mm
20:35 14.3 °C 4.8 °C 1023.6 hPa ENE 8 km/h 19.3 km/h 53% 0 mm
20:40 14.1 °C 4.4 °C 1023.6 hPa ENE 8 km/h 17.7 km/h 52% 0 mm
20:45 14.1 °C 4.3 °C 1023.6 hPa NE 12.9 km/h 22.5 km/h 52% 0 mm
20:50 13.9 °C 4.5 °C 1023.2 hPa NE 8 km/h 20.9 km/h 53% 0 mm
20:55 13.9 °C 4.4 °C 1023.2 hPa ENE 11.3 km/h 20.9 km/h 53% 0 mm
21:00 13.8 °C 4.4 °C 1023.2 hPa ENE 9.7 km/h 22.5 km/h 53% 0 mm
21:05 13.7 °C 4.3 °C 1023.2 hPa ENE 9.7 km/h 24.1 km/h 53% 0 mm
21:10 13.6 °C 4.2 °C 1022.9 hPa ENE 14.5 km/h 17.7 km/h 53% 0 mm
21:15 13.6 °C 4.4 °C 1022.9 hPa East 9.7 km/h 22.5 km/h 54% 0 mm
21:20 13.5 °C 4.4 °C 1022.6 hPa ENE 6.4 km/h 24.1 km/h 54% 0 mm
21:25 13.4 °C 4.3 °C 1022.6 hPa ENE 9.7 km/h 24.1 km/h 54% 0 mm
21:30 13.4 °C 4.3 °C 1022.6 hPa ENE 9.7 km/h 20.9 km/h 54% 0 mm
21:35 13.4 °C 4.3 °C 1022.2 hPa ENE 9.7 km/h 22.5 km/h 54% 0 mm
21:40 13.4 °C 4.3 °C 1022.2 hPa NE 11.3 km/h 19.3 km/h 54% 0 mm
21:45 13.4 °C 4.3 °C 1022.2 hPa ENE 4.8 km/h 19.3 km/h 54% 0 mm
21:50 13.4 °C 4.3 °C 1022.6 hPa NE 8 km/h 27.4 km/h 54% 0 mm
21:55 13.4 °C 4.3 °C 1022.6 hPa ENE 11.3 km/h 27.4 km/h 54% 0 mm
22:00 13.4 °C 4.5 °C 1022.9 hPa ENE 9.7 km/h 20.9 km/h 55% 0 mm
22:05 13.4 °C 4.5 °C 1022.9 hPa ENE 8 km/h 14.5 km/h 55% 0 mm
22:10 13.4 °C 4.6 °C 1022.6 hPa ENE 8 km/h 24.1 km/h 55% 0 mm
22:15 13.5 °C 4.4 °C 1022.9 hPa ENE 8 km/h 20.9 km/h 54% 0 mm
22:20 13.6 °C 4.4 °C 1022.9 hPa East 11.3 km/h 16.1 km/h 54% 0 mm
22:25 13.6 °C 4.7 °C 1022.6 hPa ENE 9.7 km/h 22.5 km/h 55% 0 mm
22:30 13.6 °C 4.7 °C 1022.6 hPa ESE 4.8 km/h 25.7 km/h 55% 0 mm
22:35 13.6 °C 4.4 °C 1022.6 hPa ENE 6.4 km/h 17.7 km/h 54% 0 mm
22:40 13.7 °C 4.5 °C 1022.6 hPa ESE 8 km/h 22.5 km/h 54% 0 mm
22:45 13.7 °C 4.5 °C 1022.6 hPa East 9.7 km/h 22.5 km/h 54% 0 mm
22:50 13.7 °C 4.5 °C 1022.6 hPa NE 4.8 km/h 14.5 km/h 54% 0 mm
22:55 13.6 °C 4.4 °C 1022.6 hPa ENE 11.3 km/h 14.5 km/h 54% 0 mm
23:00 13.7 °C 4.5 °C 1022.9 hPa East 8 km/h 22.5 km/h 54% 0 mm
23:05 13.7 °C 4.3 °C 1022.9 hPa East 8 km/h 22.5 km/h 53% 0 mm
23:10 13.7 °C 4.3 °C 1023.2 hPa ENE 6.4 km/h 16.1 km/h 53% 0 mm
23:15 13.8 °C 4.1 °C 1022.9 hPa ENE 6.4 km/h 16.1 km/h 52% 0 mm
23:20 13.8 °C 4.1 °C 1022.9 hPa ENE 8 km/h 20.9 km/h 52% 0 mm
23:25 13.9 °C 3.9 °C 1022.9 hPa ENE 8 km/h 20.9 km/h 51% 0 mm
23:30 13.9 °C 3.9 °C 1022.9 hPa East 11.3 km/h 16.1 km/h 51% 0 mm
23:35 13.9 °C 3.9 °C 1022.9 hPa East 9.7 km/h 16.1 km/h 51% 0 mm
23:40 14 °C 4 °C 1022.9 hPa East 8 km/h 16.1 km/h 51% 0 mm
23:45 13.9 °C 4.2 °C 1022.9 hPa East 14.5 km/h 16.1 km/h 52% 0 mm
23:50 13.9 °C 4.2 °C 1022.9 hPa ENE 6.4 km/h 16.1 km/h 52% 0 mm
23:55 13.9 °C 4.4 °C 1022.6 hPa NE 16.1 km/h 16.1 km/h 53% 0 mm
Buffalo, New York, USA
Compliments of Weather Underground - 2.5 mb